Location: Biltmore Gardens
(41.6070°N, 83.4666°W)
Time: 08:39:42
(UTC+00:00)

Cosmos 2344 - Pass Details

Date: 24 October 2020
Orbit: 1246 x 2997 km, 63.3° (Epoch: 03 December)

Event Time Altitude Azimuth Distance (km) Brightness Sun altitude
Exits shadow 07:35:54 23° 87° (E) 2,372 5.3 -47.8°
Drops below altitude 10° 07:39:58 10° 57° (ENE) 3,275 6.3 -47.2°
Sets 07:43:21 0° 45° (NE) 4,345 7.1 -46.6°
